Vorticity
nan nan nan nan nan nan nan nan nan nan nan nan nan nan nan nan nan nan nan nan nan nan nan nan nan nan nan nan nan nan nan nan nan nan nan nan nan nan nan nan nan nan nan nan nan nan nan nan nan
nan 7 4 5 8 5 9 8 12 12 6 4 3 5 5 7 13 13 9 11 6 6 5 7 5 5 5 5 5 6 5 5 5 4 5 5 5 5 4 4 5 5 5 6 6 5 5 5 nan
nan 6 7 4 7 9 10 15 17 3 0 2 6 6 7 5 8 3 12 11 4 6 6 6 6 7 6 5 6 6 5 5 5 6 5 5 5 5 4 4 5 6 6 6 6 5 4 4 nan
nan 7 5 4 8 11 11 17 6 -3 -0 4 4 2 10 10 7 11 10 6 6 6 7 3 5 7 6 6 6 6 5 6 6 6 5 6 5 5 5 5 6 6 6 5 4 4 5 5 nan
nan 5 7 7 8 8 11 6 -1 1 4 8 3 7 6 9 13 13 4 7 7 4 7 4 4 7 7 7 5 5 5 6 6 6 6 6 5 5 5 6 6 5 4 4 4 4 5 5 nan
nan 5 11 11 8 12 13 4 7 6 0 3 12 6 7 13 11 8 6 7 6 6 5 5 5 6 7 6 5 5 6 6 6 6 6 6 5 5 5 5 5 5 4 4 4 5 6 6 nan
nan 6 8 14 11 11 7 10 9 6 4 3 5 5 7 10 9 7 7 7 7 6 6 6 4 2 4 6 6 6 6 6 6 6 6 5 4 5 4 4 5 5 6 6 7 7 6 6 nan
nan 10 12 8 7 9 4 5 -1 6 3 6 10 10 11 11 8 9 7 4 6 7 6 6 7 6 4 4 5 6 6 6 6 6 6 3 4 4 6 5 2 6 8 8 8 7 6 3 nan
nan 10 10 5 6 1 3 4 6 3 -1 4 7 15 21 11 5 4 3 5 7 8 7 6 6 6 7 6 6 5 5 6 6 5 5 3 3 7 2 2 8 8 7 7 6 5 5 7 nan
nan 7 8 3 9 10 3 -1 7 -1 9 0 3 14 13 8 5 5 2 5 7 7 5 7 7 7 6 8 5 6 6 5 4 6 4 6 3 4 7 6 4 5 4 2 2 5 6 5 nan
nan 4 8 12 6 10 8 6 6 3 8 8 10 9 3 5 6 6 7 7 7 5 6 7 7 8 7 6 6 7 6 7 6 6 6 6 6 7 6 5 4 3 3 4 4 4 5 8 nan
nan 8 3 10 10 1 8 10 5 8 8 19 22 13 6 6 6 7 7 6 7 6 7 7 7 6 7 7 8 7 7 7 7 7 9 7 8 8 8 7 7 6 7 7 7 6 4 4 nan
nan 10 12 10 11 4 9 10 5 8 8 20 19 10 6 6 7 6 6 5 6 7 6 7 6 7 7 7 8 7 8 6 8 7 8 11 10 7 8 7 7 7 7 7 6 6 5 5 nan
nan 13 11 15 13 12 7 10 9 7 12 13 10 6 7 6 5 4 5 5 5 7 7 7 7 8 8 7 9 9 9 9 8 9 8 10 10 9 8 7 6 6 7 6 6 6 7 7 nan
nan 9 8 13 8 8 7 3 8 12 10 8 7 6 7 7 5 4 5 5 6 7 7 9 7 9 9 7 7 8 8 9 9 8 9 12 10 10 7 6 6 6 6 6 7 8 8 8 nan
nan 5 4 9 5 7 6 4 5 14 9 7 5 5 7 8 5 6 7 7 8 9 7 6 7 7 6 6 4 6 9 9 8 8 9 9 9 9 8 6 6 6 7 8 8 8 8 8 nan
nan 9 6 4 9 8 11 6 9 14 8 6 6 6 6 5 5 6 9 12 12 10 9 6 5 3 1 6 8 9 8 8 9 9 7 7 7 7 7 7 7 6 7 7 8 8 8 7 nan
nan 10 12 6 12 9 7 5 10 12 9 7 6 7 8 5 4 6 11 14 13 12 10 5 2 2 6 5 5 9 7 9 7 8 9 7 6 7 7 6 5 7 8 7 7 8 8 8 nan
nan 10 10 5 9 7 9 5 8 13 11 7 7 8 7 6 6 9 10 12 12 10 9 7 3 1 2 5 8 8 8 6 8 8 8 7 6 5 7 7 6 8 7 7 7 6 7 9 nan
nan 9 4 5 9 11 9 3 5 13 12 9 9 8 8 7 7 9 10 11 10 7 5 5 4 6 6 8 10 8 8 7 8 7 7 6 4 5 6 7 7 7 6 7 7 7 7 8 nan
nan 12 9 9 5 12 10 4 4 7 11 9 10 10 11 10 9 9 10 9 10 11 8 6 8 8 9 6 6 8 7 8 7 7 6 5 5 5 4 5 6 7 7 5 7 8 8 8 nan
nan 7 14 11 4 3 7 8 15 6 7 9 11 11 11 12 10 9 10 12 11 10 9 10 9 8 7 6 7 4 6 9 9 9 7 6 6 2 3 7 6 6 7 7 8 8 8 7 nan
nan 11 9 7 8 9 9 5 9 10 9 12 10 11 11 10 9 8 9 9 8 8 10 11 9 8 8 8 7 8 10 11 9 8 4 5 7 7 6 8 7 7 7 8 9 8 8 5 nan
nan 4 5 6 9 8 9 8 3 10 14 16 11 11 8 6 7 8 7 5 6 7 9 10 9 8 8 10 9 10 10 7 5 5 6 7 7 8 7 8 9 9 8 9 9 8 6 5 nan
nan 3 3 7 8 9 10 11 14 12 15 15 14 8 5 6 8 8 6 4 5 7 7 7 8 8 9 9 10 8 7 6 5 6 8 8 9 8 7 8 10 9 10 11 9 9 6 7 nan
nan 9 11 11 11 11 8 9 10 7 13 18 15 8 6 7 8 7 5 6 8 8 9 8 7 8 9 8 7 6 6 7 8 8 9 10 9 8 9 8 7 8 10 12 11 9 7 8 nan
nan 10 9 12 8 9 11 12 7 7 13 15 12 8 7 7 7 7 6 7 7 8 9 9 9 8 8 7 7 6 6 8 10 9 10 9 8 7 6 6 7 10 12 12 11 9 7 8 nan
nan 13 7 7 7 10 9 8 16 15 12 12 9 7 7 7 7 7 7 8 8 8 8 8 9 8 6 6 6 7 8 9 8 8 8 7 6 6 7 9 11 12 13 13 13 10 9 11 nan
nan 2 5 8 10 11 9 11 10 13 17 14 10 9 7 7 7 8 8 9 9 8 8 9 8 8 6 7 9 9 8 6 6 6 6 7 6 8 9 11 12 13 14 12 11 11 10 11 nan
nan nan nan nan nan nan nan nan nan nan nan nan nan nan nan nan nan nan nan nan nan nan nan nan nan nan nan nan nan nan nan nan nan nan nan nan nan nan nan nan nan nan nan nan nan nan nan nan nan
CAPE
0 0 0 0 0 0 0 0 0 187 403 211 121 171 306 445 294 356 577 595 663 796 668 687 912 1124 1116 1018 943 1004 707 592 548 517 448 326 328 181 103 134 204 8 0 0 0 0 0 0 0
0 0 0 0 0 0 2 0 14 435 421 76 21 5 19 77 582 612 507 738 728 698 763 729 789 1023 1178 1135 1148 1024 714 588 542 426 303 278 137 84 61 34 146 30 0 0 0 0 0 0 0
0 0 0 0 0 0 7 36 467 47 6 2 3 25 3 32 422 418 779 789 758 795 862 1079 964 1110 1222 1219 1169 1026 896 842 727 526 280 156 56 21 14 10 68 26 0 0 0 0 0 0 0
0 0 0 0 0 0 61 553 287 97 54 9 0 0 127 212 219 519 891 769 747 956 955 859 954 1056 1233 1242 1168 1002 892 841 656 614 370 113 12 0 0 13 97 4 0 0 0 0 0 0 0
0 0 0 0 0 0 57 447 253 186 23 7 18 27 191 679 376 595 981 647 909 897 1219 1269 784 1064 1122 1199 994 909 806 743 737 637 496 227 3 0 0 1 0 0 0 0 0 0 0 0 0
0 0 0 0 10 72 183 378 363 197 41 1 12 50 542 938 880 757 549 722 966 1099 1039 1129 871 1060 1113 1138 1067 833 703 715 732 673 566 289 144 120 0 0 0 0 0 0 0 0 19 0 0
0 0 0 26 138 293 459 374 205 116 27 0 22 164 790 968 1144 909 909 915 972 1035 1113 993 1024 929 876 861 725 576 578 638 656 631 559 398 292 258 173 134 70 78 81 69 42 0 0 0 0
0 0 4 158 256 474 464 119 47 14 24 83 146 350 649 1076 993 992 1072 921 971 1187 980 636 640 628 623 639 543 433 447 475 487 473 289 169 169 193 51 212 164 115 44 42 0 0 0 0 0
0 0 25 259 482 313 209 131 30 9 29 93 123 541 994 1009 829 766 906 756 813 987 592 536 509 501 365 234 367 287 348 367 330 267 142 97 244 221 130 23 52 0 0 0 0 0 0 0 0
0 0 0 0 86 63 82 33 35 46 106 112 195 1057 1144 881 901 890 817 843 1163 573 514 531 452 376 285 47 176 156 87 304 512 461 481 460 606 506 285 36 0 0 0 0 0 0 0 0 0
0 0 0 0 8 39 85 70 128 147 209 270 234 1307 812 1009 948 893 1196 800 340 331 233 213 305 228 70 30 153 197 480 642 716 743 711 829 800 857 686 111 18 5 0 0 0 0 0 0 0
0 0 0 0 16 25 59 110 152 278 183 195 241 1350 1312 1063 1352 1173 387 158 140 173 109 74 93 173 136 83 201 409 508 666 786 913 1030 1072 882 445 169 31 0 0 0 0 0 0 0 0 0
0 0 0 0 0 46 76 120 148 254 207 287 866 1291 1044 917 621 146 48 54 91 88 139 143 87 48 114 190 300 431 639 756 885 960 745 519 407 236 25 0 0 0 0 0 0 0 0 0 0
0 0 0 0 0 10 59 131 281 195 369 730 1168 923 379 178 58 18 0 0 63 118 212 322 250 238 181 363 515 574 586 637 747 471 224 80 212 95 0 0 0 0 0 0 0 0 0 0 0
0 0 0 0 0 0 38 38 0 136 380 684 602 410 228 9 0 0 0 0 41 194 319 436 548 476 340 141 118 191 64 54 89 28 1 4 4 0 0 0 0 0 0 0 0 0 0 0 0
0 0 0 0 0 0 1 2 0 100 319 452 395 321 218 82 4 0 0 0 16 318 518 447 176 82 22 9 2 1 0 0 0 0 0 0 0 0 0 0 0 0 0 0 0 0 0 0 0
0 0 0 0 0 0 0 0 0 173 228 438 445 345 220 75 12 32 93 48 41 358 690 397 289 77 25 2 0 0 0 0 0 0 0 0 0 0 0 0 0 0 0 0 0 0 0 0 0
2 0 0 0 0 0 0 0 0 251 202 222 350 370 287 205 154 87 300 238 302 677 649 433 451 20 1 0 0 0 0 0 0 0 0 0 0 0 0 0 0 0 0 0 0 0 0 0 0
0 3 0 0 0 0 0 0 0 49 317 262 249 301 315 254 55 240 484 558 675 689 494 535 114 2 0 1 0 0 0 0 0 0 0 0 0 0 0 0 0 0 0 0 0 0 0 0 0
0 8 34 0 0 2 20 34 0 4 308 351 320 312 307 178 262 396 648 662 594 572 681 340 222 95 13 10 0 0 0 0 0 0 0 0 0 0 0 0 0 0 0 0 0 0 0 0 1
50 64 39 12 0 0 18 66 37 0 4 51 146 307 274 354 497 583 848 1024 686 612 621 583 664 405 48 0 0 0 0 0 0 0 0 0 0 0 0 0 0 0 0 0 0 0 1 2 0
102 11 0 1 25 76 1 124 124 66 0 1 67 163 349 487 583 822 668 743 845 744 734 542 207 38 1 0 0 0 3 3 0 0 0 0 0 0 0 0 0 0 0 1 5 3 7 16 24
78 0 8 8 43 57 23 33 198 31 92 3 10 225 466 507 437 204 54 106 119 157 120 6 0 0 0 0 0 0 0 0 0 0 0 0 0 0 0 0 0 0 9 22 33 30 44 42 40
17 85 97 87 69 64 54 46 3 38 38 73 10 308 317 139 44 0 0 0 0 0 0 0 0 0 0 0 0 0 0 0 0 0 0 0 0 0 1 8 10 28 47 66 83 81 60 66 72
73 68 8 28 64 17 4 2 0 0 0 34 88 249 41 0 0 0 0 0 0 0 0 0 0 0 0 0 0 0 0 0 0 0 0 0 0 10 20 22 25 39 63 84 79 80 70 76 77
27 14 0 0 0 0 0 22 65 0 0 3 75 111 0 0 0 0 0 0 0 0 0 0 0 0 0 0 0 0 0 0 0 0 0 0 1 0 0 0 0 2 9 35 72 74 75 71 76
0 0 0 4 0 2 0 4 4 0 0 5 82 43 1 0 0 0 0 0 0 0 0 0 0 0 0 0 0 0 0 0 0 0 0 0 0 0 0 0 0 1 10 33 66 72 83 79 75
3 0 0 0 0 0 0 0 0 0 0 0 48 41 0 0 0 0 0 0 0 0 0 0 0 0 0 0 0 0 0 0 0 0 0 0 0 0 0 0 0 0 10 36 73 60 53 67 43
0 0 0 0 0 0 0 0 0 0 0 0 30 13 0 0 0 0 0 0 0 0 0 0 0 0 0 0 0 0 0 0 0 0 0 0 0 0 0 0 1 7 21 40 40 25 50 30 19
0 0 0 0 0 0 0 0 0 0 0 0 0 0 0 0 0 0 0 0 0 0 0 0 0 0 0 0 0 0 0 0 0 0 0 0 0 0 0 7 14 24 10 23 32 27 24 14 23